Location: Zagreb
(45.8000°N, 16.0000°E)
Time: 07:32:46
(UTC+02:00)

Courier 1B - Pass Details

Date: 10 August 2020
Orbit: 962 x 1209 km, 28.3° (Epoch: 27 September)

Event Time Altitude Azimuth Distance (km) Brightness Sun altitude
Rises 22:49:45 0° 246° (WSW) 3,832 10.7 -22.1°
Reaches altitude 10° 22:53:53 10° 224° (SW) 2,823 9.8 -22.5°
Enters shadow 22:55:36 13° 210° (SSW) 2,564 9.4 -22.7°
Maximum altitude 22:57:24 15° 193° (SSW) 2,452 - -22.9°
Drops below altitude 10° 23:00:50 10° 161° (SSE) 2,743 - -23.2°
Sets 23:04:46 0° 138° (SE) 3,658 - -23.5°
